BAW246 SBGR-EGLL

Flight info

Callsign BAW246
Flight time N/A
Altitude 35000
Route VUMEV UZ14 NITLU UZ3 UTLEV UZ88 PABES UZ4 UKAVA UZ51 DAKAP/N0494F370 UZ51 MOTBU DCT MOVGA DCT BIKOM/M084F370 DCT ULTEM DCT 25N028W/M084F390 30N026W 35N024W 40N020W DCT GONAN DCT TAMEL DCT EVBAK DCT GAPLI/N0482F390 DCT SIDDI DCT DAWLY DCT ELRIP DCT OTMET
Aircraft A35K/H-SBDE1E2E3GHIJ1J3J4J5J6M1M2P2RWXYZ/LB1D1

Departure

Time 2026-05-05 18:39
Airport São Paulo/Guarulhos–Governor André Franco Montoro International Airport (SBGR)

Arrival

Time N/A
Airport London Heathrow Airport (EGLL)
Time Latitude Longitude Altitude Speed Heading
2026-05-05 18:25 -23.42676 -46.47304 2468 ft 0 kts 248°
2026-05-05 18:31 -23.42673 -46.47295 2468 ft 3 kts 248°
2026-05-05 18:31 -23.42667 -46.47276 2468 ft 3 kts 255°
2026-05-05 18:31 -23.42663 -46.47257 2471 ft 3 kts 255°
2026-05-05 18:32 -23.42658 -46.47238 2470 ft 3 kts 255°
2026-05-05 18:32 -23.42653 -46.47219 2468 ft 3 kts 246°
2026-05-05 18:32 -23.42643 -46.47200 2470 ft 3 kts 229°
2026-05-05 18:32 -23.42629 -46.47186 2468 ft 3 kts 211°
2026-05-05 18:33 -23.42612 -46.47177 2470 ft 3 kts 194°
2026-05-05 18:33 -23.42607 -46.47176 2468 ft 0 kts 189°
2026-05-05 18:33 -23.42614 -46.47176 2470 ft 4 kts 182°
2026-05-05 18:33 -23.42687 -46.47167 2471 ft 13 kts 166°
2026-05-05 18:34 -23.42772 -46.47142 2470 ft 13 kts 165°
2026-05-05 18:34 -23.42854 -46.47116 2470 ft 12 kts 165°
2026-05-05 18:34 -23.42919 -46.47131 2471 ft 8 kts 227°
2026-05-05 18:34 -23.42942 -46.47185 2472 ft 8 kts 251°
2026-05-05 18:35 -23.42958 -46.47239 2470 ft 8 kts 252°
2026-05-05 18:35 -23.42988 -46.47347 2473 ft 26 kts 254°
2026-05-05 18:35 -23.43043 -46.47547 2472 ft 27 kts 253°
2026-05-05 18:35 -23.43094 -46.47739 2474 ft 26 kts 253°
2026-05-05 18:36 -23.43145 -46.47924 2474 ft 25 kts 253°
2026-05-05 18:36 -23.43192 -46.48102 2473 ft 24 kts 253°
2026-05-05 18:36 -23.43231 -46.48247 2477 ft 0 kts 254°
2026-05-05 18:36 -23.43238 -46.48272 2476 ft 18 kts 251°
2026-05-05 18:37 -23.43293 -46.48365 2474 ft 0 kts 198°
2026-05-05 18:37 -23.43358 -46.48353 2475 ft 32 kts 166°
2026-05-05 18:37 -23.43429 -46.48306 2474 ft 0 kts 120°
2026-05-05 18:37 -23.43429 -46.48305 2474 ft 0 kts 116°
2026-05-05 18:38 -23.43420 -46.48266 2474 ft 8 kts 69°
2026-05-05 18:38 -23.43398 -46.48206 2474 ft 10 kts 70°
2026-05-05 18:38 -23.43330 -46.47974 2474 ft 63 kts 73°
2026-05-05 18:38 -23.43146 -46.47291 2470 ft 123 kts 72°
2026-05-05 18:39 -23.42857 -46.46222 2469 ft 173 kts 73°
2026-05-05 18:39 -23.42508 -46.44923 3071 ft 171 kts 74°
2026-05-05 18:39 -23.42166 -46.43684 3775 ft 175 kts 73°
2026-05-05 18:39 -23.41766 -46.42330 4069 ft 200 kts 73°
2026-05-05 18:40 -23.41320 -46.40824 4294 ft 219 kts 73°
2026-05-05 18:40 -23.40828 -46.39153 4487 ft 241 kts 74°
2026-05-05 18:40 -23.40287 -46.37368 4805 ft 258 kts 71°
2026-05-05 18:40 -23.39331 -46.35693 5239 ft 267 kts 48°
2026-05-05 18:41 -23.37942 -46.34312 5796 ft 272 kts 38°
2026-05-05 18:41 -23.36393 -46.33120 6395 ft 276 kts 34°
2026-05-05 18:41 -23.34739 -46.31987 7001 ft 279 kts 32°
2026-05-05 18:41 -23.33088 -46.30874 7629 ft 282 kts 33°
2026-05-05 18:42 -23.31432 -46.29730 8306 ft 284 kts 34°
2026-05-05 18:42 -23.29761 -46.28533 9015 ft 286 kts 34°
2026-05-05 18:42 -23.28106 -46.27314 9743 ft 289 kts 35°
2026-05-05 18:42 -23.26442 -46.26068 10296 ft 297 kts 36°
2026-05-05 18:43 -23.24700 -46.24753 10592 ft 314 kts 36°
2026-05-05 18:43 -23.22872 -46.23371 10859 ft 330 kts 36°
2026-05-05 18:43 -23.20924 -46.21897 11132 ft 346 kts 36°
2026-05-05 18:43 -23.18908 -46.20374 11402 ft 360 kts 36°
2026-05-05 18:44 -23.16820 -46.18803 11672 ft 374 kts 35°
2026-05-05 18:44 -23.14666 -46.17186 12070 ft 381 kts 35°
2026-05-05 18:44 -23.12448 -46.15525 12601 ft 386 kts 35°
2026-05-05 18:44 -23.10257 -46.13885 13116 ft 389 kts 35°
2026-05-05 18:45 -23.07998 -46.12195 13670 ft 393 kts 35°
2026-05-05 18:45 -23.05761 -46.10520 14171 ft 396 kts 35°
2026-05-05 18:45 -23.03457 -46.08795 14623 ft 399 kts 35°
2026-05-05 18:45 -23.01165 -46.07078 15040 ft 404 kts 35°
2026-05-05 18:46 -22.98846 -46.05343 15456 ft 408 kts 35°
2026-05-05 18:46 -22.96518 -46.03601 15907 ft 411 kts 36°
2026-05-05 18:46 -22.94132 -46.01815 16315 ft 414 kts 36°
2026-05-05 18:46 -22.91769 -46.00045 16718 ft 418 kts 36°